This demonstration page uses our WeatherBlox Daily Observations layout. Learn more.

Left ArrowRight Arrow

Hourly Observations for April 25, 2018

Temp ( °F °C ) Dew Point ( °F °C ) Humidity (%) Winds ( mph kmh ) Pressure ( in mb ) Visibility ( mi km ) Precip ( " mm )
12:59 am 00:59 Cloudy with Mist and Fog 61 16.1 59 15 93 93 SE 10 17 29.86 1011 6 10 0.00 0.00
1:09 am 01:09 Cloudy with Mist and Fog 61 16.1 58 14.4 90 90 ESE 10 17 29.88 1012 6 10 0.00 0.00
1:59 am 01:59 Cloudy 60 15.6 58 14.4 93 93 ESE 7 11 29.83 1010 7 11 0.00 0.00
2:56 am 02:56 Cloudy with Mist and Fog 57 14 55 13 94 94 ENE 8 13 29.80 1009 2 3 0.00 0.00
2:59 am 02:59 Cloudy with Mist and Fog 57 13.9 55 12.8 93 93 E 6 9 29.80 1009 1 2 0.00 0.00
3:04 am 03:04 Cloudy with Fog 56 13.3 55 12.8 97 97 E 6 9 29.80 1009 1 1 0.00 0.00
3:21 am 03:21 Mostly Cloudy with Mist and Fog 56 13.3 55 12.8 97 97 ENE 6 9 29.80 1009 1 1 0.00 0.00
3:59 am 03:59 Mostly Cloudy with Mist and Fog 56 13.3 55 12.8 97 97 ESE 6 9 29.78 1008 1 2 0.00 0.00
4:15 am 04:15 Mostly Cloudy with Mist and Fog 56 13.3 56 13.3 100 100 Calm 29.77 1008 1 1 0.00 0.00
4:46 am 04:46 Mostly Cloudy with Fog 56 13.3 55 12.8 97 97 ENE 3 6 29.77 1008 1 1 0.00 0.00
4:59 am 04:59 Mostly Cloudy with Fog 57 13.9 55 12.8 93 93 ENE 5 7 29.76 1008 1 1 0.00 0.00
5:32 am 05:32 Mostly Cloudy with Fog 57 13.9 56 13.3 96 96 E 8 13 29.77 1008 0 0 0.00 0.00
5:59 am 05:59 Mostly Cloudy with Fog 57 13.9 56 13.3 96 96 Calm 29.75 1008 0 0 0.00 0.00
6:16 am 06:16 Mostly Cloudy with Fog 58 14.4 58 14.4 100 100 Calm 29.77 1008 1 1 0.00 0.00
6:26 am 06:26 Mostly Cloudy with Fog 58 14.4 56 13.3 93 93 Calm 29.77 1008 0 0 0.00 0.00
6:41 am 06:41 Mostly Cloudy with Mist and Fog 58 14.4 57 13.9 97 97 Calm 29.77 1008 1 1 0.00 0.00
6:51 am 06:51 Cloudy with Mist and Fog 58 14.4 57 13.9 97 97 Calm 29.77 1008 1 2 0.00 0.00
6:56 am 06:56 Cloudy with Mist and Fog 57 14 57 14 100 100 Calm 29.77 1008 2 3 0.00 0.00
6:59 am 06:59 Cloudy with Mist and Fog 59 15 58 14.4 96 96 Calm 29.76 1008 3 4 0.00 0.00
7:07 am 07:07 Cloudy with Mist and Fog 59 15 58 14.4 96 96 S 3 6 29.77 1008 3 5 0.00 0.00
7:15 am 07:15 Cloudy with Mist and Fog 59 15 58 14.4 96 96 Calm 29.77 1008 3 5 0.00 0.00
7:24 am 07:24 Cloudy with Mist and Fog 59 15 58 14.4 96 96 SE 3 6 29.77 1008 2 3 0.00 0.00
7:33 am 07:33 Cloudy with Mist and Fog 60 15.6 58 14.4 93 93 SE 3 6 29.77 1008 1 2 0.00 0.00
7:50 am 07:50 Cloudy with Mist and Fog 60 15.6 59 15 96 96 S 6 9 29.77 1008 1 2 0.00 0.00
7:59 am 07:59 Cloudy with Mist and Fog 60 15.6 59 15 96 96 S 6 9 29.76 1008 1 2 0.00 0.00
8:13 am 08:13 Cloudy with Mist and Fog 60 15.6 60 15.6 100 100 S 5 7 29.77 1008 2 3 0.00 0.00
8:25 am 08:25 Cloudy with Mist and Fog 61 16.1 60 15.6 97 97 SSW 5 7 29.77 1008 2 3 0.00 0.00
8:45 am 08:45 Mostly Cloudy with Mist and Fog 61 16.1 60 15.6 97 97 SSW 3 6 29.74 1007 4 6 0.00 0.00
8:53 am 08:53 Mostly Cloudy with Mist and Fog 61 16 61 16 100 100 SSW 5 7 29.74 1007 4 6 0.00 0.00
8:59 am 08:59 Mostly Cloudy with Mist and Fog 62 16.7 61 16.1 96 96 VRB 3 6 29.75 1007 4 6 0.00 0.00
9:59 am 09:59 Mostly Cloudy 65 18.3 60 15.6 84 84 SW 8 13 29.74 1007 8 13 0.00 0.00
10:41 am 10:41 Partly Cloudy 66 18.9 59 15 78 78 SW 9 15 29.74 1007 9 14 0.00 0.00
10:59 am 10:59 Partly Cloudy 67 19.4 59 15 76 76 SW 7 11 29.73 1007 10 16 0.00 0.00
11:59 am 11:59 Partly Cloudy 69 20.6 60 15.6 73 73 W 5 7 29.72 1007 10 16 0.00 0.00
12:59 pm 12:59 Partly Cloudy 71 21.7 61 16.1 71 71 W 8 13 29.71 1006 9 14 0.00 0.00
1:59 pm 13:59 Partly Cloudy 73 22.8 59 15 62 62 SW 13 20 29.69 1005 10 16 0.00 0.00
2:59 pm 14:59 Partly Cloudy 72 22.2 59 15 64 64 WNW 8 13 29.67 1005 10 16 0.00 0.00
3:52 pm 15:52 Cloudy with Thunderstorms 67 19.4 60 15.6 79 79 E 8 13 29.65 1004 5 8 0.00 0.03
3:59 pm 15:59 Cloudy with Thunderstorms 66 18.9 60 15.6 81 81 E 7 11 29.66 1004 4 6 0.01 0.25
4:17 pm 16:17 Cloudy with Thunderstorms 65 18.3 60 15.6 84 84 NNW 12 19 29.68 1005 2 3 0.00 0.03
4:36 pm 16:36 Cloudy with Thunderstorms 61 16.1 58 14.4 90 90 N 7 11 29.68 1005 5 8 0.07 1.78
4:59 pm 16:59 Cloudy with Thunderstorms 63 17.2 58 14.4 84 84 N 3 6 29.68 1005 6 10 0.11 2.79
5:40 pm 17:40 Mostly Cloudy 63 17.2 59 15 87 87 Calm 29.68 1005 7 11 0.00 0.00
5:59 pm 17:59 Mostly Cloudy 63 17.2 58 14.4 84 84 undefined N/A 29.68 1005 7 11 0.06 1.52
6:59 pm 18:59 Mostly Cloudy 64 17.8 60 15.6 87 87 Calm 29.70 1006 8 13 0.00 0.00
7:59 pm 19:59 Mostly Cloudy 63 17.2 58 14.4 84 84 W 8 13 29.72 1006 10 16 0.00 0.00
8:59 pm 20:59 Mostly Cloudy 61 16.1 58 14.4 90 90 W 6 9 29.75 1008 10 16 0.00 0.00
9:59 pm 21:59 Mostly Cloudy 62 16.7 58 14.4 86 86 WNW 9 15 29.75 1008 10 16 0.00 0.00
10:59 pm 22:59 Mostly Cloudy 60 15.6 57 13.9 90 90 W 6 9 29.75 1007 10 16 0.00 0.00
11:59 pm 23:59 Mostly Cloudy 60 15.6 57 13.9 90 90 W 5 7 29.75 1007 10 16 0.00 0.00

Powered by AerisWeather